Darstellungsparameter: Aktuell verwendete Einstellungen:
Skalierung der Graphiken ... ?
xyx+y,   Skalierungsfaktor:      Skalierung: Modus: x, Faktor: 1
Darstellungszeitraum ... ?
Vom - - bis: - -   Zeitraum: 27.04.2020 - 27.04.2020
Min/Max/Avg-Anzeige ... ?
Zeige MMA aktuell
Zeige MMA Monat
Zeige MMA alles
Zeige --A aktuell
Zeige --A Monat
Zeige --A alles
Keine MMA-Anzeige
MMA:
Keine MMA-Graphiken
MMA-Basis: 27.04.2020 - 27.04.2020
Quicknavigation für Darstellung... ?
Tage:      1T, 2T, 3T, 5T -1T -2T -3T -5T +1T +2T +3T +5T
Wochen: 1W, 2W, 3W -1W -2W -3W +1W +2W +3W
Monate: 1M, 3M, 6M -1M -3M -6M +1M +3M +6M
Jahre:    1J, 3J, 5J, 10J -1J -3J -5J -10J +1J +3J +5J +10J
Nutze für die Darstellung ... ?
Originaldaten oder Mittelwerte auf ...
Stundenbasis Tagesbasis Wochenbasis
Monatsbasis Jahresbasis      Datenbasis: Original-Daten
Darstellen als:
Statistik (Auto) Statistik J:M      Darstellung:
Zur Graphik,    zurück zur Übersicht aller Sensoren.
 
Tabellarische Datenbersicht: ?
 
Sensor: Nr:Datum:Temp:Feuchte:Taupunkt:
Aussen-T/F 1 27-04-2020 00:00:00 9 C 72 % 4.23 C
2 27-04-2020 00:05:00 8.9 C 72 % 4.14 C
3 27-04-2020 00:10:00 8.8 C 73 % 4.24 C
4 27-04-2020 00:15:00 8.7 C 73 % 4.14 C
5 27-04-2020 00:20:00 8.6 C 73 % 4.04 C
6 27-04-2020 00:25:00 8.6 C 73 % 4.04 C
7 27-04-2020 00:30:00 8.4 C 74 % 4.04 C
8 27-04-2020 00:35:00 8.3 C 75 % 4.14 C
9 27-04-2020 00:40:00 8.3 C 75 % 4.14 C
10 27-04-2020 00:45:00 8.2 C 75 % 4.04 C
11 27-04-2020 00:50:00 8.1 C 76 % 4.13 C
12 27-04-2020 00:55:00 7.9 C 76 % 3.94 C
13 27-04-2020 01:00:00 7.9 C 76 % 3.94 C
14 27-04-2020 01:05:00 7.8 C 77 % 4.03 C
15 27-04-2020 01:10:00 7.8 C 77 % 4.03 C
16 27-04-2020 01:15:00 7.7 C 77 % 3.93 C
17 27-04-2020 01:20:00 7.6 C 78 % 4.02 C
18 27-04-2020 01:25:00 7.6 C 78 % 4.02 C
19 27-04-2020 01:30:00 7.4 C 78 % 3.82 C
20 27-04-2020 01:35:00 7.3 C 79 % 3.91 C
21 27-04-2020 01:40:00 7.3 C 79 % 3.91 C
22 27-04-2020 01:45:00 7.2 C 79 % 3.81 C
23 27-04-2020 01:50:00 7.2 C 80 % 3.99 C
24 27-04-2020 01:55:00 7.1 C 79 % 3.71 C
25 27-04-2020 02:00:00 7 C 80 % 3.79 C
Sensor: Nr:Datum:Temp:Feuchte:Taupunkt:
Aussen-T/F 26 27-04-2020 02:05:00 6.9 C 80 % 3.7 C
27 27-04-2020 02:10:00 6.9 C 80 % 3.7 C
28 27-04-2020 02:15:00 6.8 C 81 % 3.77 C
29 27-04-2020 02:20:00 6.8 C 81 % 3.77 C
30 27-04-2020 02:25:00 6.7 C 81 % 3.68 C
31 27-04-2020 02:30:00 6.6 C 81 % 3.58 C
32 27-04-2020 02:35:00 6.6 C 82 % 3.75 C
33 27-04-2020 02:40:00 6.5 C 82 % 3.66 C
34 27-04-2020 02:45:00 6.5 C 82 % 3.66 C
35 27-04-2020 02:50:00 6.4 C 82 % 3.56 C
36 27-04-2020 02:55:00 6.4 C 83 % 3.73 C
37 27-04-2020 03:00:00 6.3 C 83 % 3.63 C
38 27-04-2020 03:05:00 6.3 C 83 % 3.63 C
39 27-04-2020 03:10:00 6.2 C 83 % 3.53 C
40 27-04-2020 03:15:00 6.1 C 84 % 3.61 C
41 27-04-2020 03:20:00 6.1 C 84 % 3.61 C
42 27-04-2020 03:25:00 6.1 C 84 % 3.61 C
43 27-04-2020 03:30:00 6 C 84 % 3.51 C
44 27-04-2020 03:35:00 6 C 85 % 3.67 C
45 27-04-2020 03:40:00 6.1 C 85 % 3.77 C
46 27-04-2020 03:45:00 6.1 C 85 % 3.77 C
47 27-04-2020 03:50:00 6.1 C 85 % 3.77 C
48 27-04-2020 03:55:00 6.1 C 85 % 3.77 C
49 27-04-2020 04:00:00 6 C 85 % 3.67 C
50 27-04-2020 04:05:00 5.9 C 84 % 3.41 C
Sensor: Nr:Datum:Temp:Feuchte:Taupunkt:
Aussen-T/F 51 27-04-2020 04:10:00 5.8 C 85 % 3.48 C
52 27-04-2020 04:15:00 5.7 C 85 % 3.38 C
53 27-04-2020 04:20:00 5.6 C 85 % 3.28 C
54 27-04-2020 04:25:00 5.4 C 86 % 3.25 C
55 27-04-2020 04:30:00 5.3 C 86 % 3.15 C
56 27-04-2020 04:35:00 5.2 C 87 % 3.22 C
57 27-04-2020 04:40:00 5.1 C 87 % 3.12 C
58 27-04-2020 04:45:00 4.9 C 87 % 2.92 C
59 27-04-2020 04:50:00 4.9 C 88 % 3.08 C
60 27-04-2020 04:55:00 4.8 C 88 % 2.99 C
61 27-04-2020 05:00:00 4.8 C 88 % 2.99 C
62 27-04-2020 05:05:00 4.8 C 88 % 2.99 C
63 27-04-2020 05:10:00 4.8 C 89 % 3.14 C
64 27-04-2020 05:15:00 4.7 C 89 % 3.05 C
65 27-04-2020 05:20:00 4.7 C 88 % 2.89 C
66 27-04-2020 05:25:00 4.6 C 88 % 2.79 C
67 27-04-2020 05:30:00 4.4 C 89 % 2.75 C
68 27-04-2020 05:35:00 4.4 C 89 % 2.75 C
69 27-04-2020 05:40:00 4.3 C 89 % 2.65 C
70 27-04-2020 05:45:00 4.3 C 89 % 2.65 C
71 27-04-2020 05:50:00 4.2 C 90 % 2.71 C
72 27-04-2020 05:55:00 4.2 C 90 % 2.71 C
73 27-04-2020 06:00:00 4.2 C 90 % 2.71 C
74 27-04-2020 06:05:00 4.2 C 90 % 2.71 C
75 27-04-2020 06:10:00 4.2 C 90 % 2.71 C
Sensor: Nr:Datum:Temp:Feuchte:Taupunkt:
Aussen-T/F 76 27-04-2020 06:15:00 4.2 C 91 % 2.87 C
77 27-04-2020 06:20:00 4.2 C 91 % 2.87 C
78 27-04-2020 06:25:00 4.2 C 91 % 2.87 C
79 27-04-2020 06:30:00 4.2 C 91 % 2.87 C
80 27-04-2020 06:35:00 4.3 C 91 % 2.96 C
81 27-04-2020 06:40:00 4.3 C 91 % 2.96 C
82 27-04-2020 06:45:00 4.3 C 91 % 2.96 C
83 27-04-2020 06:50:00 4.3 C 91 % 2.96 C
84 27-04-2020 06:55:00 4.2 C 91 % 2.87 C
85 27-04-2020 07:00:00 4.3 C 91 % 2.96 C
86 27-04-2020 07:05:00 4.3 C 91 % 2.96 C
87 27-04-2020 07:10:00 4.3 C 91 % 2.96 C
88 27-04-2020 07:15:00 4.3 C 91 % 2.96 C
89 27-04-2020 07:20:00 4.3 C 92 % 3.12 C
90 27-04-2020 07:25:00 4.4 C 92 % 3.22 C
91 27-04-2020 07:30:00 4.4 C 92 % 3.22 C
92 27-04-2020 07:35:00 4.5 C 92 % 3.32 C
93 27-04-2020 07:40:00 4.6 C 92 % 3.42 C
94 27-04-2020 07:45:00 4.7 C 92 % 3.51 C
95 27-04-2020 07:50:00 4.8 C 92 % 3.61 C
96 27-04-2020 07:55:00 4.9 C 92 % 3.71 C
97 27-04-2020 08:00:00 5 C 92 % 3.81 C
98 27-04-2020 08:05:00 5.1 C 92 % 3.91 C
99 27-04-2020 08:10:00 5.1 C 92 % 3.91 C
100 27-04-2020 08:15:00 5.2 C 92 % 4.01 C
Sensor: Nr:Datum:Temp:Feuchte:Taupunkt:
Aussen-T/F 101 27-04-2020 08:20:00 5.3 C 92 % 4.11 C
102 27-04-2020 08:25:00 5.3 C 92 % 4.11 C
103 27-04-2020 08:30:00 5.4 C 92 % 4.21 C
104 27-04-2020 08:35:00 5.5 C 92 % 4.31 C
105 27-04-2020 08:40:00 5.6 C 92 % 4.41 C
106 27-04-2020 08:45:00 5.8 C 92 % 4.6 C
107 27-04-2020 08:50:00 5.9 C 92 % 4.7 C
108 27-04-2020 08:55:00 6.1 C 92 % 4.9 C
109 27-04-2020 09:00:00 6.2 C 92 % 5 C
110 27-04-2020 09:05:00 6.3 C 92 % 5.1 C
111 27-04-2020 09:10:00 6.4 C 91 % 5.04 C
112 27-04-2020 09:15:00 6.5 C 92 % 5.3 C
113 27-04-2020 09:20:00 6.6 C 91 % 5.24 C
114 27-04-2020 09:25:00 6.8 C 91 % 5.44 C
115 27-04-2020 09:30:00 6.9 C 91 % 5.54 C
116 27-04-2020 09:35:00 7.1 C 91 % 5.73 C
117 27-04-2020 09:40:00 7.3 C 91 % 5.93 C
118 27-04-2020 09:45:00 7.4 C 91 % 6.03 C
119 27-04-2020 09:50:00 7.7 C 91 % 6.33 C
120 27-04-2020 09:55:00 7.8 C 91 % 6.43 C
121 27-04-2020 10:00:00 8.1 C 91 % 6.72 C
122 27-04-2020 10:05:00 8.3 C 91 % 6.92 C
123 27-04-2020 10:10:00 8.6 C 91 % 7.22 C
124 27-04-2020 10:15:00 8.8 C 90 % 7.25 C
125 27-04-2020 10:20:00 9.2 C 89 % 7.48 C
Sensor: Nr:Datum:Temp:Feuchte:Taupunkt:
Aussen-T/F 126 27-04-2020 10:25:00 9.7 C 88 % 7.81 C
127 27-04-2020 10:30:00 10 C 87 % 7.94 C
128 27-04-2020 10:35:00 10.3 C 85 % 7.89 C
129 27-04-2020 10:40:00 10.6 C 84 % 8.01 C
130 27-04-2020 10:45:00 10.9 C 82 % 7.95 C
131 27-04-2020 10:50:00 11.6 C 79 % 8.09 C
132 27-04-2020 10:55:00 12.1 C 78 % 8.38 C
133 27-04-2020 11:00:00 12.7 C 72 % 7.79 C
134 27-04-2020 11:05:00 13.4 C 67 % 7.4 C
135 27-04-2020 11:10:00 14.2 C 63 % 7.27 C
136 27-04-2020 11:15:00 14.8 C 63 % 7.83 C
137 27-04-2020 11:20:00 15.2 C 62 % 7.98 C
138 27-04-2020 11:25:00 15.6 C 57 % 7.12 C
139 27-04-2020 11:30:00 15.9 C 56 % 7.14 C
140 27-04-2020 11:35:00 16.2 C 57 % 7.68 C
141 27-04-2020 11:40:00 16.4 C 52 % 6.53 C
142 27-04-2020 11:45:00 16.7 C 52 % 6.81 C
143 27-04-2020 11:50:00 16.9 C 54 % 7.54 C
144 27-04-2020 11:55:00 17 C 53 % 7.36 C
145 27-04-2020 12:00:00 17.2 C 52 % 7.27 C
146 27-04-2020 12:05:00 17.3 C 52 % 7.36 C
147 27-04-2020 12:10:00 17.6 C 51 % 7.35 C
148 27-04-2020 12:15:00 17.8 C 51 % 7.54 C
149 27-04-2020 12:20:00 17.9 C 49 % 7.05 C
150 27-04-2020 12:25:00 18.1 C 48 % 6.93 C
Sensor: Nr:Datum:Temp:Feuchte:Taupunkt:
Aussen-T/F 151 27-04-2020 12:30:00 18.1 C 49 % 7.23 C
152 27-04-2020 12:35:00 18.2 C 47 % 6.71 C
153 27-04-2020 12:40:00 18.3 C 46 % 6.49 C
154 27-04-2020 12:45:00 18.4 C 46 % 6.58 C
155 27-04-2020 12:50:00 18.6 C 45 % 6.45 C
156 27-04-2020 12:55:00 18.8 C 44 % 6.3 C
157 27-04-2020 13:00:00 19.1 C 41 % 5.55 C
158 27-04-2020 13:05:00 19.3 C 43 % 6.42 C
159 27-04-2020 13:10:00 19.3 C 43 % 6.42 C
160 27-04-2020 13:15:00 19.4 C 41 % 5.82 C
161 27-04-2020 13:20:00 19.4 C 41 % 5.82 C
162 27-04-2020 13:25:00 19.6 C 40 % 5.64 C
163 27-04-2020 13:30:00 19.6 C 42 % 6.35 C
164 27-04-2020 13:35:00 19.8 C 41 % 6.18 C
165 27-04-2020 13:40:00 19.8 C 41 % 6.18 C
166 27-04-2020 13:45:00 19.9 C 40 % 5.91 C
167 27-04-2020 13:50:00 20 C 39 % 5.64 C
168 27-04-2020 13:55:00 20 C 40 % 6 C
169 27-04-2020 14:00:00 20.2 C 40 % 6.18 C
170 27-04-2020 14:05:00 20.4 C 39 % 5.99 C
171 27-04-2020 14:10:00 20.6 C 39 % 6.17 C
172 27-04-2020 14:15:00 20.7 C 40 % 6.63 C
173 27-04-2020 14:20:00 20.7 C 40 % 6.63 C
174 27-04-2020 14:25:00 20.7 C 39 % 6.26 C
175 27-04-2020 14:30:00 20.8 C 38 % 5.97 C
Sensor: Nr:Datum:Temp:Feuchte:Taupunkt:
Aussen-T/F 176 27-04-2020 14:35:00 20.9 C 38 % 6.06 C
177 27-04-2020 14:40:00 20.9 C 40 % 6.81 C
178 27-04-2020 14:45:00 21.1 C 39 % 6.62 C
179 27-04-2020 14:50:00 21.2 C 38 % 6.33 C
180 27-04-2020 14:55:00 21.4 C 37 % 6.12 C
181 27-04-2020 15:00:00 21.7 C 36 % 5.99 C
182 27-04-2020 15:05:00 21.8 C 36 % 6.08 C
183 27-04-2020 15:10:00 21.9 C 36 % 6.17 C
184 27-04-2020 15:15:00 22.1 C 36 % 6.34 C
185 27-04-2020 15:20:00 22.2 C 36 % 6.43 C
186 27-04-2020 15:25:00 22.2 C 35 % 6.02 C
187 27-04-2020 15:30:00 22.3 C 35 % 6.11 C
188 27-04-2020 15:35:00 22.5 C 34 % 5.87 C
189 27-04-2020 15:40:00 22.8 C 33 % 5.7 C
190 27-04-2020 15:45:00 23.1 C 32 % 5.52 C
191 27-04-2020 15:50:00 23.2 C 35 % 6.9 C
192 27-04-2020 15:55:00 23.2 C 33 % 6.05 C
193 27-04-2020 16:00:00 23.3 C 34 % 6.57 C
194 27-04-2020 16:05:00 23.2 C 32 % 5.61 C
195 27-04-2020 16:10:00 23.3 C 33 % 6.14 C
196 27-04-2020 16:15:00 23.1 C 32 % 5.52 C
197 27-04-2020 16:20:00 22.7 C 33 % 5.61 C
198 27-04-2020 16:25:00 22.5 C 34 % 5.87 C
199 27-04-2020 16:30:00 22.2 C 35 % 6.02 C
200 27-04-2020 16:35:00 22.3 C 37 % 6.92 C
Sensor: Nr:Datum:Temp:Feuchte:Taupunkt:
Aussen-T/F 201 27-04-2020 16:40:00 22.6 C 35 % 6.38 C
202 27-04-2020 16:45:00 22.6 C 35 % 6.38 C
203 27-04-2020 16:50:00 22.4 C 36 % 6.61 C
204 27-04-2020 16:55:00 22.2 C 36 % 6.43 C
205 27-04-2020 17:00:00 22 C 37 % 6.65 C
206 27-04-2020 17:05:00 21.9 C 36 % 6.17 C
207 27-04-2020 17:10:00 21.8 C 37 % 6.48 C
208 27-04-2020 17:15:00 21.7 C 38 % 6.77 C
209 27-04-2020 17:20:00 21.6 C 38 % 6.69 C
210 27-04-2020 17:25:00 21.4 C 39 % 6.89 C
211 27-04-2020 17:30:00 21.3 C 39 % 6.8 C
212 27-04-2020 17:35:00 21.2 C 39 % 6.71 C
213 27-04-2020 17:40:00 21.1 C 41 % 7.35 C
214 27-04-2020 17:45:00 21.1 C 42 % 7.7 C
215 27-04-2020 17:50:00 21.1 C 41 % 7.35 C
216 27-04-2020 17:55:00 21.3 C 41 % 7.53 C
217 27-04-2020 18:00:00 21.4 C 42 % 7.97 C
218 27-04-2020 18:05:00 21.3 C 39 % 6.8 C
219 27-04-2020 18:10:00 21.2 C 43 % 8.13 C
220 27-04-2020 18:15:00 21.4 C 44 % 8.65 C
221 27-04-2020 18:20:00 22.2 C 42 % 8.69 C
222 27-04-2020 18:25:00 22.9 C 38 % 7.84 C
223 27-04-2020 18:30:00 23.3 C 35 % 6.99 C
224 27-04-2020 18:35:00 23.3 C 36 % 7.4 C
225 27-04-2020 18:40:00 23.4 C 36 % 7.49 C
Sensor: Nr:Datum:Temp:Feuchte:Taupunkt:
Aussen-T/F 226 27-04-2020 18:45:00 23.5 C 35 % 7.17 C
227 27-04-2020 18:50:00 23.6 C 36 % 7.67 C
228 27-04-2020 18:55:00 23.6 C 36 % 7.67 C
229 27-04-2020 19:00:00 22.9 C 39 % 8.22 C
230 27-04-2020 19:05:00 22.4 C 44 % 9.56 C
231 27-04-2020 19:10:00 21.8 C 43 % 8.67 C
232 27-04-2020 19:15:00 21.2 C 47 % 9.45 C
233 27-04-2020 19:20:00 20.9 C 48 % 9.49 C
234 27-04-2020 19:25:00 20.6 C 48 % 9.21 C
235 27-04-2020 19:30:00 20.2 C 49 % 9.15 C
236 27-04-2020 19:35:00 19.7 C 49 % 8.7 C
237 27-04-2020 19:40:00 19.2 C 51 % 8.83 C
238 27-04-2020 19:45:00 18.9 C 52 % 8.84 C
239 27-04-2020 19:50:00 18.6 C 52 % 8.56 C
240 27-04-2020 19:55:00 18.2 C 54 % 8.75 C
241 27-04-2020 20:00:00 17.9 C 54 % 8.47 C
242 27-04-2020 20:05:00 17.6 C 55 % 8.46 C
243 27-04-2020 20:10:00 17.4 C 56 % 8.54 C
244 27-04-2020 20:15:00 17.2 C 57 % 8.62 C
245 27-04-2020 20:20:00 17 C 57 % 8.43 C
246 27-04-2020 20:25:00 16.8 C 58 % 8.5 C
247 27-04-2020 20:30:00 16.5 C 59 % 8.47 C
248 27-04-2020 20:35:00 16.2 C 60 % 8.43 C
249 27-04-2020 20:40:00 15.8 C 61 % 8.3 C
250 27-04-2020 20:45:00 15.6 C 62 % 8.35 C
Sensor: Nr:Datum:Temp:Feuchte:Taupunkt:
Aussen-T/F 251 27-04-2020 20:50:00 15.4 C 62 % 8.16 C
252 27-04-2020 20:55:00 15.2 C 63 % 8.21 C
253 27-04-2020 21:00:00 15.1 C 63 % 8.12 C
254 27-04-2020 21:05:00 15 C 64 % 8.25 C
255 27-04-2020 21:10:00 14.9 C 64 % 8.16 C
256 27-04-2020 21:15:00 14.8 C 65 % 8.29 C
257 27-04-2020 21:20:00 14.8 C 66 % 8.52 C
258 27-04-2020 21:25:00 14.7 C 66 % 8.42 C
259 27-04-2020 21:30:00 14.6 C 66 % 8.33 C
260 27-04-2020 21:35:00 14.4 C 66 % 8.14 C
261 27-04-2020 21:40:00 14.3 C 67 % 8.26 C
262 27-04-2020 21:45:00 14.2 C 68 % 8.39 C
263 27-04-2020 21:50:00 14 C 68 % 8.19 C
264 27-04-2020 21:55:00 13.8 C 68 % 8 C
265 27-04-2020 22:00:00 13.7 C 69 % 8.12 C
266 27-04-2020 22:05:00 13.6 C 69 % 8.03 C
267 27-04-2020 22:10:00 13.6 C 70 % 8.24 C
268 27-04-2020 22:15:00 13.5 C 70 % 8.14 C
269 27-04-2020 22:20:00 13.4 C 71 % 8.26 C
270 27-04-2020 22:25:00 13.3 C 71 % 8.16 C
271 27-04-2020 22:30:00 13.2 C 72 % 8.27 C
272 27-04-2020 22:35:00 13.1 C 72 % 8.17 C
273 27-04-2020 22:40:00 12.9 C 72 % 7.98 C
274 27-04-2020 22:45:00 12.8 C 73 % 8.09 C
275 27-04-2020 22:50:00 12.7 C 73 % 7.99 C
Sensor: Nr:Datum:Temp:Feuchte:Taupunkt:
Aussen-T/F 276 27-04-2020 22:55:00 12.6 C 73 % 7.89 C
277 27-04-2020 23:00:00 12.6 C 73 % 7.89 C
278 27-04-2020 23:05:00 12.5 C 74 % 8 C
279 27-04-2020 23:10:00 12.4 C 74 % 7.9 C
280 27-04-2020 23:15:00 12.3 C 74 % 7.8 C
281 27-04-2020 23:20:00 12.3 C 74 % 7.8 C
282 27-04-2020 23:25:00 12.3 C 74 % 7.8 C
283 27-04-2020 23:30:00 12.2 C 75 % 7.91 C
284 27-04-2020 23:35:00 12.1 C 75 % 7.81 C
285 27-04-2020 23:40:00 11.9 C 76 % 7.81 C
286 27-04-2020 23:45:00 11.8 C 76 % 7.71 C
287 27-04-2020 23:50:00 11.6 C 77 % 7.71 C
288 27-04-2020 23:55:00 11.4 C 78 % 7.71 C

Legende:
   Min
   Max


Maximal/Minimal-Werte vom 27.04.2020 - 27.04.2020

Sensor Min Max Avg
Temp
(Aussen-T/F)
4.2 °C
27-04-2020  05:50:00
23.6 °C
27-04-2020  18:50:00
12.89 °C
Feuchte
(Aussen-T/F)
32 %
27-04-2020  15:45:00
92 %
27-04-2020  07:20:00
66.54 %
Taupunkt
(Aussen-T/F)
2.65 C
27-04-2020  05:40:00
9.56 C
27-04-2020  19:05:00
5.82 C

Die Daten stammen von einer Davis Vantage Pro 2 Wetter-Station und werden unter Linux mit der Software wview2wettercgi und aufbereitet. Alle Angaben erfolgen ohne Gewähr für ihre Vollständigkeit oder Richtigkeit.
Kontakt: Rainer Krienke krienke@uni-koblenz.de . Meine Webseiten an der Uni Koblenz oder privat.
Version: $Revision: 0.78 $